Regional Weather Roundup
Issued by NWS Goodland, KS

Home | Current Version | Previous Version | Text Only | Print | Product List | Glossary Off
Versions: 1 2 3 4 5 6 7 8 9 10 11 12 13 14 15 16 17 18 19 20 21 22 23 24 25 26 27 28 29 30 31 32 33 34 35 36 37 38 39 40 41 42 43 44 45 46 47 48 49 50

000
ASUS43 KGLD 250808
RWRGLD

GOODLAND FORECAST AREA HOURLY WEATHER ROUNDUP
NATIONAL WEATHER SERVICE GOODLAND KS
100 AM MST SUN FEB 25 2018

...OFFICIAL OBSERVATIONS...

CITY           SKY/WX    TMP DP  RH WIND       PRES   REMARKS
GOODLAND KS    PTCLDY    19  11  70 SW9       29.90F
HILL CITY KS   CLOUDY    20  13  74 W6        29.97R
IMPERIAL NEB   MOCLDY    24  16  71 SW7       29.86F
MCCOOK NEB     PTCLDY    24  15  68 W8        29.91R
AKRON CO       MOCLDY    20  10  65 W12       29.83F WCI   8
BURLINGTON CO  PTCLDY    15   9  76 SW7       29.90F
LIMON CO       CLOUDY    14   9  80 CALM      29.87S
$$

...UNOFFICIAL OBSERVATIONS...

CITY           SKY/WX    TMP DP  RH WIND       PRES   REMARKS
COLBY KS       PTCLDY    19  18  93 SW6       29.93S
NORTON KS      CLEAR     19  10  68 W8        29.90
SHARON SPRINGS   N/A     13   5  70 CALM        N/A
KIT CARSON CO    N/A     14   8  78 CALM        N/A
$$




USA.gov is the U.S. government's official web portal to all federal, state and local government web resources and services.